Miscellaneous Local Product
Issued by NWS Hastings, NE

Home | Current Version | Previous Version | Graphics & Text | Print | Product List | Glossary On
Versions: 1 2 3 4 5 6 7 8 9 10 11 12 13 14 15 16 17 18 19 20 21 22 23 24 25 26 27 28 29 30 31 32 33 34 35 36 37 38 39 40 41 42 43 44 45 46 47 48 49 50
000
AXUS43 KGID 291902
MISGRI

GID CWA HOURLY WEATHER ROUNDUP
NATIONAL WEATHER SERVICE HASTINGS NE
200 PM CDT WED OCT 29 2014

NOTE: "FAIR" INDICATES FEW OR NO CLOUDS BELOW 12,000 FEET WITH NO
SIGNIFICANT WEATHER AND/OR OBSTRUCTIONS TO VISIBILITY.

...SOUTH CENTRAL NEBRASKA...

CITY           SKY/WX    TMP DP  RH WIND       PRES   REMARKS
GRAND ISLAND   SUNNY     58  28  32 S16       30.13F
HASTINGS       SUNNY     58  28  32 S12       30.12F
KEARNEY        SUNNY     61  28  29 SE17G23   30.11F
ORD            SUNNY     57  28  33 S13       30.08F
YORK           SUNNY     55  32  41 S9        30.15F
AURORA         SUNNY     56  28  32 S13G18    30.13F
LEXINGTON      SUNNY     60  29  30 S10G17    30.09F
HOLDREGE       SUNNY     59  27  29 S12G21    30.10F
HEBRON         SUNNY     59  26  28 S10G16    30.15F

...NEBRASKA PANHANDLE...

CITY           SKY/WX    TMP DP  RH WIND       PRES   REMARKS
CHADRON        SUNNY     64  26  23 CALM      29.98F
ALLIANCE       SUNNY     65  20  17 W16       30.01F
SCOTTSBLUFF    SUNNY     66  27  23 W6        30.03F
SIDNEY         SUNNY     66  26  22 SW16G26   30.08F

...WESTERN AND NORTH CENTRAL NEBRASKA...

CITY           SKY/WX    TMP DP  RH WIND       PRES   REMARKS
VALENTINE      SUNNY     61  25  25 S10       30.00F
AINSWORTH      SUNNY     59  24  26 S15       30.02F
ONEILL         SUNNY     57  30  34 S16       30.08F
BROKEN BOW     SUNNY     60  29  30 S13G24    30.07F
IMPERIAL       SUNNY     68  22  17 W10       30.07F
NORTH PLATTE   SUNNY     64  25  22 S9        30.05F
MCCOOK         SUNNY     64  30  27 SW8       30.09F

...EASTERN NEBRASKA...

CITY           SKY/WX    TMP DP  RH WIND       PRES   REMARKS
NORFOLK        SUNNY     53  31  42 S10       30.13F
SO SIOUX CITY  SUNNY     51  32  48 VRB5      30.16F
TEKAMAH        SUNNY     53  30  41 SW6       30.17F
COLUMBUS       SUNNY     54  30  40 S10       30.16F
ALBION         SUNNY     54  29  38 S10       30.12F
OMAHA EPPLEY   SUNNY     52  31  44 VRB5      30.19F
OFFUTT AFB     SUNNY     53  32  44 VRB2      30.18F
MILLARD        SUNNY     53  32  45 SW5       30.18F
LINCOLN        SUNNY     55  34  45 S8        30.18F
NEBRASKA CITY  SUNNY     53  27  36 CALM      30.19F
BEATRICE       SUNNY     55  32  42 S6        30.17F
FALLS CITY     SUNNY     57  33  40 CALM      30.20F

...NORTHERN KANSAS...

CITY           SKY/WX    TMP DP  RH WIND       PRES   REMARKS
GOODLAND       SUNNY     70  21  15 W7        30.11F
HILL CITY      SUNNY     68  37  32 S12G18    30.11F
NORTON         CLEAR     68  27  21 S9        30.09F
PHILLIPSBURG   SUNNY     68  32  26 S10       30.11F
SMITH CENTER   SUNNY     61  30  31 SE14      30.13F
BELOIT         SUNNY     63  32  31 SE13G18   30.13F
HAYS           SUNNY     70  39  32 SW13G20   30.12F
RUSSELL        SUNNY     67  37  33 S13G23    30.11F
CONCORDIA      SUNNY     61  32  33 SE14      30.15F
SALINA         SUNNY     66  34  30 S10       30.17F
TOPEKA         SUNNY     61  33  35 VRB5      30.20F



USA.gov is the U.S. government's official web portal to all federal, state and local government web resources and services.